Regional Weather Roundup
Issued by NWS

Home | Current Version | Previous Version | Text Only | Print | Product List | Glossary On
Versions: 1 2 3 4 5 6 7 8 9 10 11 12 13 14 15 16 17 18 19 20 21 22 23 24 25 26 27 28 29 30 31 32 33 34 35 36 37 38 39 40 41 42 43 44 45 46 47 48 49 50
000
ASCA44 KEWX 211320
RWRMX

LATIN AMERICA AND CARIBBEAN REGIONAL WEATHER ROUNDUP
NATIONAL WEATHER SERVICE AUSTIN/SAN ANTONIO TX
800 AM CDT THU SEP 21 2017

NOTE: "FAIR" INDICATED FEW OR NO CLOUDS BELOW 12,000 FEET WITH NO
SIGNIFICANT WEATHER AND/OR OBSTRUCTIONS TO VISIBILITY.

BAJA CALIFORNIA

CITY           SKY/WX    TMP DP  RH WIND       PRES   REMARKS
LORETO         CLEAR     84  70  61 NW12      29.78
MEXICALI       CLEAR     66  36  32 NE5       29.71
S.J. DEL CABO  CLEAR     79  68  69 CALM      29.82
TIJUANA        CLOUDY    66  57  72 CALM      29.89

NORTHWESTERN MEXICO

CITY           SKY/WX    TMP DP  RH WIND       PRES   REMARKS
CULIACAN       PTCLDY    77  73  88 CALM      29.79S
DURANGO        CLOUDY    59  59 100 N3        30.22
HERMOSILLO     CLEAR     81  72  74 SE5       29.85R
LOS MOCHIS     CLEAR     81  73  78 CALM      29.80
OBREGON        CLEAR     75  70  83 CALM      29.77

NORTHEASTERN MEXICO

CITY           SKY/WX    TMP DP  RH WIND       PRES   REMARKS
MONCLOVA         N/A    N/A N/A N/A MISG        N/A
MONTERREY      MOCLDY    77  70  78 E8        29.90R
REYNOSA        PTCLDY    77  72  83 SE6       29.89R
SALTILLO       MOCLDY    64  57  77 CALM      30.17S
TORREON        PTCLDY    70  64  83 CALM      30.04
CD. VICTORIA   CLEAR     77  72  83 S8        29.91S

WESTERN MEXICO

CITY           SKY/WX    TMP DP  RH WIND       PRES   REMARKS
AGUASCALIENTES CLEAR     57  54  88 NE7       30.22R
COLIMA         DRIZZLE   72  72 100 CALM      29.95F FOG
DEL BAJIO      PTCLDY    63  57  82 CALM      30.24R
GUADALAJARA    MOCLDY    61  59  94 CALM      30.13R
MANZANILLO     CLOUDY    77  77 100 S23       29.79
MAZATLAN       PTCLDY    77  75  94 CALM      29.80R
P. VALLARTA    MOCLDY    81  81 100 CALM      29.80R HX  91
URUAPAN        MOCLDY    64  63  94 CALM      30.09R
ZACATECAS      MOCLDY    88  50  27 E6        30.26

CENTRAL MEXICO

CITY           SKY/WX    TMP DP  RH WIND       PRES   REMARKS
CUERNAVACA     MOCLDY    68  66  94 CALM      30.06
MEXICO CITY    MOCLDY    61  54  77 NW3       30.27S
MORELIA        MOCLDY    57  57 100 CALM      30.18R
POZA RICA      PTCLDY    77  75  94 N5        29.96  FOG
QUERETARO      MOCLDY    63  59  88 E7        30.26R
S. LUIS POTOSI CLOUDY    61  61 100 N6        30.22
TAMPICO        MOCLDY    81  77  89 CALM      29.90R
TOLUCA         FOG       54  52  94 SW3       30.31  VSB 1/4

SOUTHERN MEXICO

CITY           SKY/WX    TMP DP  RH WIND       PRES   REMARKS
ACAPULCO       CLOUDY    77  75  94 SW6       29.85S
B. DE HUATULCO MOSUNNY  N/A N/A N/A CALM      29.88
OAXACA         FOG       63  61  94 CALM      30.18R VSB 1/16
P. ESCONDIDO   PTCLDY    75  72  88 CALM      29.94R
VERACRUZ       CLOUDY    77  75  94 CALM      29.89R
ZIHUATANEJO    RAIN      77  75  94 CALM      29.84

YUCATAN PENINSULA

CITY           SKY/WX    TMP DP  RH WIND       PRES   REMARKS
CAMPECHE       MOSUNNY   79  79 100 CALM      29.87R
CANCUN         MOSUNNY   77  77 100 NE2       29.93R
CHETUMAL       MOSUNNY   79  77  94 CALM      29.89R
CD. DEL CARMEN CLOUDY   N/A N/A N/A E12       29.87R
COZUMEL        MOSUNNY   82  79  89 CALM      29.91R HX  93
MERIDA         MOSUNNY   81  77  89 E7        29.92R
MINATITLAN     PTSUNNY   77  75  94 CALM      29.83F
TAPACHULA      PTSUNNY   75  75 100 CALM      29.84R
TUX. GUTIERREZ CLOUDY    73  73 100 N6        29.94S FOG
VILLAHERMOSA   PTSUNNY   75  73  94 CALM      29.88R FOG

CENTRAL AMERICA

CITY           SKY/WX    TMP DP  RH WIND       PRES   REMARKS
BELIZE CITY    MOSUNNY   84  81  89 E5        29.87R HX  98
MANAGUA        MOSUNNY   79  73  83 SE5       29.86S

CARIBBEAN

CITY           SKY/WX    TMP DP  RH WIND       PRES   REMARKS
ARUBA          MOSUNNY   86  79  79 SE7       29.80S HX  99
CURACAO        MOSUNNY   88  73  62 SE8       29.83S HX  96
KINGSTON       MOSUNNY   86  75  70 N3        29.83R HX  95
NASSAU         MOSUNNY   86  75  70 NE7       29.94R HX  95
SANTO DOMINGO  LGT RAIN  77  77 100 SW16G25   29.65S
ST. KITTS      MOSUNNY   84  77  79 E13       29.89S HX  94

$$





USA.gov is the U.S. government's official web portal to all federal, state and local government web resources and services.